N709LP KRIC-KPWM

Flight info

Callsign N709LP
Flight time N/A
Altitude 41000
Route LUCYL6 LUCYL HYTRA GRACO BROSS Q419 RBV Q22 LLUND BDR SCOGS3
Aircraft CL60/M-SBDE1E2E3FGHIJ1J4J5J7M3RWXYZ/LB1V1D1

Departure

Time 2026-05-08 00:05
Airport Richmond International Airport (KRIC)

Arrival

Time N/A
Airport Portland International Jetport (KPWM)
Time Latitude Longitude Altitude Speed Heading
2026-05-07 23:16 37.51736 -77.32939 165 ft 0 kts 69°
2026-05-07 23:57 37.51733 -77.32913 165 ft 7 kts 128°
2026-05-07 23:58 37.51673 -77.32875 165 ft 11 kts 155°
2026-05-07 23:58 37.51640 -77.32847 165 ft 8 kts 113°
2026-05-07 23:58 37.51637 -77.32742 165 ft 13 kts 92°
2026-05-07 23:58 37.51595 -77.32682 165 ft 12 kts 194°
2026-05-07 23:59 37.51500 -77.32712 165 ft 15 kts 194°
2026-05-07 23:59 37.51382 -77.32748 165 ft 18 kts 192°
2026-05-07 23:59 37.51244 -77.32788 165 ft 21 kts 193°
2026-05-07 23:59 37.51087 -77.32835 165 ft 24 kts 193°
2026-05-08 00:00 37.50916 -77.32885 165 ft 23 kts 193°
2026-05-08 00:00 37.50787 -77.32925 164 ft 15 kts 195°
2026-05-08 00:00 37.50678 -77.32959 162 ft 18 kts 192°
2026-05-08 00:00 37.50543 -77.32999 162 ft 18 kts 194°
2026-05-08 00:01 37.50434 -77.33033 162 ft 16 kts 193°
2026-05-08 00:01 37.50313 -77.33073 162 ft 19 kts 195°
2026-05-08 00:01 37.50171 -77.33117 162 ft 21 kts 194°
2026-05-08 00:01 37.50020 -77.33163 162 ft 23 kts 194°
2026-05-08 00:02 37.49926 -77.33111 162 ft 13 kts 103°
2026-05-08 00:02 37.49921 -77.33090 162 ft 0 kts 104°
2026-05-08 00:04 37.49921 -77.33089 162 ft 1 kts 104°
2026-05-08 00:04 37.49911 -77.33037 162 ft 10 kts 103°
2026-05-08 00:04 37.49904 -77.32963 162 ft 6 kts 47°
2026-05-08 00:04 37.49965 -77.32943 162 ft 14 kts 14°
2026-05-08 00:05 37.50354 -77.32826 162 ft 117 kts 13°
2026-05-08 00:05 37.51433 -77.32492 546 ft 184 kts 14°
2026-05-08 00:05 37.52659 -77.32105 1887 ft 192 kts 16°
2026-05-08 00:05 37.53903 -77.31481 2967 ft 211 kts 33°
2026-05-08 00:06 37.55036 -77.30089 4082 ft 244 kts 45°
2026-05-08 00:06 37.56211 -77.28465 5419 ft 264 kts 44°
2026-05-08 00:06 37.57476 -77.26699 6781 ft 281 kts 44°
2026-05-08 00:06 37.58796 -77.24869 8082 ft 295 kts 44°
2026-05-08 00:07 37.60233 -77.22953 9367 ft 308 kts 41°
2026-05-08 00:07 37.61791 -77.21054 10569 ft 322 kts 40°
2026-05-08 00:07 37.63474 -77.19045 11414 ft 348 kts 39°
2026-05-08 00:07 37.65277 -77.16891 12395 ft 366 kts 40°
2026-05-08 00:08 37.67153 -77.14706 13426 ft 377 kts 37°
2026-05-08 00:08 37.69202 -77.12592 14463 ft 387 kts 34°
2026-05-08 00:08 37.71326 -77.10432 15574 ft 394 kts 34°
2026-05-08 00:08 37.73444 -77.08276 16667 ft 398 kts 33°
2026-05-08 00:09 37.75612 -77.06072 17636 ft 405 kts 33°
2026-05-08 00:09 37.77815 -77.03834 18618 ft 409 kts 33°
2026-05-08 00:09 37.80061 -77.01551 19473 ft 417 kts 32°
2026-05-08 00:09 37.82312 -76.99267 20242 ft 424 kts 32°
2026-05-08 00:10 37.84636 -76.96907 21010 ft 431 kts 32°
2026-05-08 00:10 37.86970 -76.94537 21767 ft 436 kts 32°
2026-05-08 00:10 37.89362 -76.92104 22435 ft 444 kts 31°
2026-05-08 00:10 37.91761 -76.89525 23100 ft 454 kts 35°
2026-05-08 00:11 37.94036 -76.86727 23890 ft 460 kts 38°
2026-05-08 00:11 37.96287 -76.83836 24562 ft 466 kts 38°
2026-05-08 00:11 37.98569 -76.80909 25339 ft 469 kts 38°
2026-05-08 00:11 38.00901 -76.77924 25984 ft 475 kts 38°
2026-05-08 00:12 38.03251 -76.74914 26611 ft 481 kts 38°
2026-05-08 00:12 38.05650 -76.71844 27222 ft 486 kts 38°
2026-05-08 00:12 38.08058 -76.68757 27797 ft 491 kts 37°
2026-05-08 00:12 38.10463 -76.65650 28356 ft 496 kts 38°
2026-05-08 00:13 38.12785 -76.62618 28902 ft 499 kts 38°
2026-05-08 00:13 38.14435 -76.60462 29183 ft 504 kts 38°
2026-05-08 00:13 38.16889 -76.57258 29621 ft 509 kts 38°
2026-05-08 00:13 38.19356 -76.54034 30090 ft 512 kts 37°
2026-05-08 00:14 38.21851 -76.50771 30516 ft 516 kts 38°
2026-05-08 00:14 38.24348 -76.47502 30935 ft 519 kts 38°
2026-05-08 00:14 38.26931 -76.44270 31271 ft 517 kts 31°
2026-05-08 00:14 38.29815 -76.41740 31677 ft 499 kts 17°
2026-05-08 00:15 38.32967 -76.39922 32028 ft 488 kts
2026-05-08 00:15 38.36205 -76.38688 32377 ft 480 kts
2026-05-08 00:15 38.39434 -76.37663 32657 ft 483 kts
2026-05-08 00:15 38.42738 -76.36604 32993 ft 485 kts
2026-05-08 00:16 38.45986 -76.35558 33284 ft 488 kts
2026-05-08 00:16 38.49308 -76.34486 33534 ft 490 kts
2026-05-08 00:16 38.52629 -76.33409 33793 ft 493 kts
2026-05-08 00:16 38.55939 -76.32334 34048 ft 494 kts
2026-05-08 00:17 38.59317 -76.31232 34363 ft 494 kts
2026-05-08 00:17 38.62620 -76.30151 34754 ft 492 kts
2026-05-08 00:17 38.65942 -76.29061 35119 ft 491 kts
2026-05-08 00:17 38.69273 -76.27968 35487 ft 490 kts
2026-05-08 00:18 38.72556 -76.26887 35842 ft 488 kts
2026-05-08 00:18 38.75867 -76.25799 36128 ft 488 kts
2026-05-08 00:18 38.79173 -76.24711 36372 ft 489 kts
2026-05-08 00:18 38.82496 -76.23616 36621 ft 489 kts
2026-05-08 00:19 38.85765 -76.22523 36837 ft 492 kts
2026-05-08 00:19 38.89054 -76.21117 37087 ft 502 kts 12°
2026-05-08 00:19 38.92274 -76.19247 37274 ft 512 kts 19°
2026-05-08 00:19 38.95351 -76.16948 37437 ft 521 kts 25°
2026-05-08 00:20 38.98328 -76.14179 37672 ft 528 kts 32°
2026-05-08 00:20 39.01105 -76.11070 37867 ft 534 kts 37°
2026-05-08 00:20 39.03749 -76.07715 38046 ft 536 kts 39°
2026-05-08 00:20 39.06377 -76.04320 38290 ft 535 kts 39°
2026-05-08 00:21 39.09042 -76.00884 38525 ft 534 kts 39°
2026-05-08 00:21 39.11609 -75.97572 38718 ft 534 kts 39°
2026-05-08 00:21 39.13995 -75.94498 38826 ft 536 kts 39°
2026-05-08 00:21 39.16659 -75.91061 39028 ft 535 kts 39°
2026-05-08 00:22 39.19291 -75.87713 39231 ft 532 kts 36°
2026-05-08 00:22 39.22085 -75.84579 39441 ft 528 kts 33°
2026-05-08 00:22 39.24881 -75.81534 39593 ft 528 kts 33°
2026-05-08 00:22 39.27719 -75.78435 39734 ft 529 kts 33°
2026-05-08 00:23 39.30544 -75.75346 39860 ft 529 kts 33°
2026-05-08 00:23 39.33345 -75.72279 40000 ft 529 kts 33°
2026-05-08 00:23 39.36147 -75.69209 40180 ft 528 kts 33°
2026-05-08 00:23 39.38927 -75.66157 40314 ft 528 kts 33°
2026-05-08 00:24 39.41743 -75.63065 40444 ft 528 kts 33°
2026-05-08 00:24 39.44532 -75.59999 40507 ft 530 kts 33°
2026-05-08 00:24 39.47343 -75.56905 40664 ft 529 kts 33°
2026-05-08 00:24 39.50155 -75.53806 40761 ft 529 kts 33°
2026-05-08 00:25 39.55778 -75.47600 40857 ft 530 kts 33°
2026-05-08 00:25 39.61401 -75.41379 40879 ft 532 kts 33°
2026-05-08 00:26 39.67073 -75.35089 40867 ft 532 kts 33°
2026-05-08 00:26 39.72478 -75.29081 40879 ft 532 kts 34°
2026-05-08 00:27 39.78098 -75.22797 40863 ft 534 kts 36°
2026-05-08 00:27 39.83270 -75.15717 40854 ft 542 kts 44°
2026-05-08 00:28 39.88250 -75.08254 40880 ft 543 kts 44°
2026-05-08 00:28 39.93191 -75.00852 40862 ft 543 kts 44°
2026-05-08 00:29 39.97998 -74.93248 40866 ft 549 kts 51°
2026-05-08 00:29 40.02249 -74.84907 40853 ft 550 kts 53°
2026-05-08 00:30 40.06476 -74.76546 40881 ft 551 kts 53°
2026-05-08 00:30 40.10480 -74.68620 40863 ft 550 kts 52°
2026-05-08 00:31 40.14524 -74.60607 40870 ft 550 kts 53°
2026-05-08 00:31 40.18877 -74.52248 40896 ft 546 kts 47°
2026-05-08 00:32 40.24181 -74.45255 40884 ft 534 kts 33°
2026-05-08 00:32 40.29611 -74.39418 40869 ft 535 kts 33°